TimeMST,TemperatureF,Dew PointF,Humidity,Sea Level PressureIn,VisibilityMPH,Wind Direction,Wind SpeedMPH,Gust SpeedMPH,PrecipitationIn,Events,Conditions,WindDirDegrees,DateUTC
12:53 AM,18.0,16.0,92,30.43,10.0,South,9.2,-,N/A,,Clear,170,2012-11-15 07:53:00
1:53 AM,18.0,15.1,88,30.42,10.0,South,9.2,-,N/A,,Clear,170,2012-11-15 08:53:00
2:53 AM,18.0,16.0,92,30.44,10.0,SSE,5.8,-,N/A,,Clear,160,2012-11-15 09:53:00
3:53 AM,12.0,10.9,95,30.47,10.0,Calm,Calm,-,N/A,,Clear,0,2012-11-15 10:53:00
4:53 AM,14.0,12.0,92,30.48,10.0,Calm,Calm,-,N/A,,Mostly Cloudy,0,2012-11-15 11:53:00
5:53 AM,18.0,15.1,88,30.48,10.0,Calm,Calm,-,N/A,,Overcast,0,2012-11-15 12:53:00
6:53 AM,19.0,15.1,85,30.50,10.0,South,8.1,-,N/A,,Clear,190,2012-11-15 13:53:00
7:53 AM,15.1,12.9,91,30.50,10.0,SSW,8.1,-,N/A,,Clear,200,2012-11-15 14:53:00
8:53 AM,21.0,18.0,88,30.51,10.0,Calm,Calm,-,N/A,,Clear,0,2012-11-15 15:53:00
9:53 AM,21.0,18.0,88,30.51,10.0,Calm,Calm,-,N/A,,Clear,0,2012-11-15 16:53:00
10:53 AM,25.0,19.9,81,30.49,10.0,Calm,Calm,-,N/A,,Clear,0,2012-11-15 17:53:00
11:53 AM,28.0,21.0,75,30.43,10.0,Calm,Calm,-,N/A,,Clear,0,2012-11-15 18:53:00
12:53 PM,32.0,21.9,66,30.38,10.0,Calm,Calm,-,N/A,,Clear,0,2012-11-15 19:53:00
1:53 PM,33.1,23.0,66,30.35,10.0,Calm,Calm,-,N/A,,Clear,0,2012-11-15 20:53:00
2:53 PM,33.1,24.1,70,30.34,10.0,Calm,Calm,-,N/A,,Clear,0,2012-11-15 21:53:00
3:53 PM,33.1,25.0,72,30.35,10.0,Calm,Calm,-,N/A,,Clear,0,2012-11-15 22:53:00
4:53 PM,25.0,23.0,92,30.36,10.0,Calm,Calm,-,N/A,,Clear,0,2012-11-15 23:53:00
5:53 PM,21.9,21.0,96,30.36,10.0,Calm,Calm,-,N/A,,Clear,0,2012-11-16 00:53:00
6:53 PM,21.9,21.9,100,30.36,10.0,Calm,Calm,-,N/A,,Clear,0,2012-11-16 01:53:00
7:53 PM,25.0,21.9,88,30.35,10.0,Calm,Calm,-,N/A,,Clear,0,2012-11-16 02:53:00
8:53 PM,24.1,21.0,88,30.33,10.0,South,6.9,-,N/A,,Clear,190,2012-11-16 03:53:00
9:53 PM,21.0,19.0,92,30.34,10.0,South,3.5,-,N/A,,Clear,180,2012-11-16 04:53:00
10:53 PM,19.9,16.0,85,30.32,10.0,South,9.2,-,N/A,,Clear,180,2012-11-16 05:53:00
11:53 PM,18.0,14.0,84,30.30,10.0,Calm,Calm,-,N/A,,Clear,0,2012-11-16 06:53:00